FW1247 Weather Reports


time (UTC)temp
C
wind
direction
speed
KPH
gust
KPH
rain 1hr
cm
rain 24hr
cm
rain mn
cm
humidity
%
barometer
mb
20260903060040 16 167 14.5 25.7 0.05 0.10 0.10 92 1009.3
20260903054533 16 178 12.9 29.0 0.05 0.10 0.10 92 1009.3
20260903053029 16 142 9.7 16.1 0.00 0.05 0.05 92 1009.5
20260903051529 16 165 4.8 12.9 0.00 0.05 0.05 93 1009.5
20260903050026 16 166 4.8 9.7 0.03 0.05 0.05 93 1009.6
20260903044528 16 190 6.4 9.7 0.05 0.05 0.05 93 1009.7
20260903043029 16 180 4.8 11.3 0.05 0.05 0.05 93 1009.8
20260903041522 16 184 4.8 12.9 0.05 0.05 0.05 93 1010.1
20260903040020 16 187 3.2 8.0 0.05 0.05 0.05 93 1010.2
20260903034527 16 180 3.2 9.7 0.03 0.03 0.03 93 1010.2
20260903033017 16 181 4.8 11.3 0.03 0.03 0.03 94 1010.3
20260903031516 16 192 4.8 11.3 0.00 0.00 0.00 94 1010.5
20260903030014 16 180 4.8 11.3 0.00 0.00 0.00 94 1010.6
20260903024513 16 165 4.8 11.3 0.00 0.00 0.00 94 1010.7
20260903023012 16 190 3.2 8.0 0.00 0.00 0.00 94 1010.8
20260903021513 16 202 3.2 8.0 0.00 0.00 0.00 94 1011.0
20260903020008 16 198 3.2 9.7 0.00 0.00 0.00 94 1011.2
20260903014505 16 208 4.8 6.4 0.00 0.00 0.00 94 1011.3
20260903013004 16 221 1.6 8.0 0.00 0.00 0.00 94 1011.4
20260903011503 16 225 6.4 11.3 0.00 0.00 0.00 94 1011.5
20260903010003 16 187 6.4 14.5 0.00 0.00 0.00 94 1011.6
20260903004502 16 186 4.8 9.7 0.00 0.03 0.00 93 1011.5
20260903003100 16 200 3.2 11.3 0.00 0.03 0.00 93 1011.7
20260903001600 16 205 1.6 8.0 0.00 0.03 0.00 93 1011.7
20260903000100 16 224 4.8 11.3 0.00 0.03 0.00 93 1011.6
20260902234606 16 212 6.4 14.5 0.00 0.03 0.00 93 1011.7
20260902233057 16 203 6.4 16.1 0.00 0.03 0.00 92 1011.8
20260902231600 16 227 6.4 11.3 0.00 0.03 0.00 92 1011.8
20260902230055 16 223 4.8 11.3 0.00 0.03 0.00 92 1011.8
20260902224554 16 234 1.6 8.0 0.00 0.03 0.00 92 1011.9
20260902223058 16 206 4.8 12.9 0.00 0.03 0.00 92 1012.0
20260902221552 16 215 4.8 14.5 0.00 0.03 0.00 92 1012.1
20260902220049 16 267 4.8 12.9 0.00 0.03 0.00 92 1012.1
20260902214548 16 236 3.2 11.3 0.00 0.03 0.03 93 1012.2
20260902213047 15 236 1.6 9.7 0.00 0.03 0.03 93 1012.2
20260902211550 15 232 1.6 9.7 0.00 0.03 0.03 93 1012.2
20260902210046 15 225 1.6 6.4 0.00 0.03 0.03 92 1012.1
20260902204546 15 300 0.0 4.8 0.00 0.03 0.03 92 1012.1
20260902203047 15 300 1.6 4.8 0.00 0.03 0.03 91 1012.2
20260902201552 16 300 0.0 3.2 0.00 0.03 0.03 91 1012.2
20260902200044 16 300 0.0 3.2 0.00 0.03 0.03 91 1012.4
20260902194543 16 300 0.0 3.2 0.00 0.03 0.03 90 1012.3
20260902193043 16 300 0.0 3.2 0.00 0.03 0.03 90 1012.3
20260902191543 16 301 0.0 3.2 0.00 0.03 0.03 89 1012.3
20260902190043 16 300 0.0 3.2 0.00 0.03 0.03 88 1012.3
20260902184541 17 300 1.6 3.2 0.00 0.05 0.03 88 1012.3
20260902183041 17 301 3.2 6.4 0.00 0.05 0.03 87 1012.3
20260902181550 17 298 6.4 12.9 0.00 0.05 0.03 85 1012.4
20260902180040 18 314 8.0 12.9 0.00 0.05 0.03 80 1012.2
20260902174539 18 262 3.2 14.5 0.00 0.05 0.03 78 1012.2
20260902173045 18 283 4.8 12.9 0.00 0.05 0.03 78 1012.1
20260902171543 19 232 6.4 11.3 0.00 0.05 0.03 77 1012.1
20260902170038 19 269 8.0 24.1 0.00 0.05 0.03 77 1012.1
20260902164538 19 196 8.0 17.7 0.00 0.05 0.03 77 1012.2
20260902163037 19 242 14.5 22.5 0.00 0.05 0.03 76 1011.9
20260902161535 20 242 11.3 27.4 0.00 0.05 0.03 77 1012.0
20260902160039 20 251 11.3 19.3 0.00 0.05 0.03 76 1012.1
20260902154534 20 212 9.7 24.1 0.00 0.05 0.03 75 1012.1
20260902153033 20 224 11.3 29.0 0.00 0.05 0.03 74 1012.2
20260902151531 20 204 14.5 29.0 0.00 0.05 0.03 73 1012.2
20260902150029 20 213 11.3 29.0 0.00 0.05 0.03 73 1012.3
20260902144528 20 229 14.5 27.4 0.00 0.05 0.03 71 1012.4
20260902143026 20 236 11.3 24.1 0.00 0.05 0.03 73 1012.4
20260902141525 20 203 12.9 24.1 0.00 0.05 0.03 73 1012.5
20260902140033 20 270 11.3 20.9 0.00 0.05 0.03 73 1012.4
20260902134523 20 234 11.3 29.0 0.00 0.05 0.03 72 1012.5
20260902133022 20 246 14.5 29.0 0.00 0.05 0.03 70 1012.5
20260902131521 20 211 16.1 37.0 0.00 0.05 0.03 69 1012.6
20260902130020 21 221 11.3 30.6 0.00 0.05 0.03 68 1012.5
20260902124522 20 194 14.5 35.4 0.00 0.08 0.03 68 1012.8
20260902123025 20 246 14.5 32.2 0.00 0.08 0.03 67 1012.9
20260902121518 20 211 11.3 27.4 0.00 0.08 0.03 68 1012.8
20260902120017 21 219 16.1 27.4 0.00 0.08 0.03 66 1012.8
20260902114515 20 186 14.5 24.1 0.00 0.38 0.03 68 1013.0
20260902113014 19 200 12.9 25.7 0.00 0.38 0.03 70 1013.1
20260902111533 19 181 14.5 29.0 0.00 0.38 0.03 69 1013.2
20260902110034 20 197 16.1 29.0 0.00 0.38 0.03 68 1013.2
20260902104511 20 236 12.9 30.6 0.00 0.41 0.03 75 1013.3
20260902103008 18 174 17.7 25.7 0.00 0.41 0.03 75 1013.3
20260902101506 19 239 9.7 25.7 0.00 0.41 0.03 75 1013.3
20260902100006 20 189 12.9 27.4 0.00 0.41 0.03 75 1013.2
20260902094502 19 202 14.5 27.4 0.00 0.51 0.03 75 1013.2
20260902093059 19 215 14.5 29.0 0.00 0.51 0.03 76 1013.0
20260902091600 18 207 17.7 27.4 0.00 0.51 0.03 80 1013.2
20260902090053 18 197 14.5 24.1 0.00 0.51 0.03 83 1013.2
20260902084556 18 187 14.5 33.8 0.00 0.51 0.03 85 1013.3
20260902083057 18 179 12.9 29.0 0.00 0.51 0.03 86 1013.2
20260902081547 17 229 16.1 24.1 0.00 0.51 0.03 89 1013.3
20260902080100 17 224 12.9 33.8 0.00 0.51 0.03 89 1013.2
20260902074542 17 215 11.3 24.1 0.00 0.51 0.03 90 1013.1
20260902073039 17 201 6.4 16.1 0.00 0.51 0.03 92 1013.1
20260902071538 17 212 11.3 19.3 0.00 0.51 0.03 93 1013.1
20260902070036 16 192 8.0 19.3 0.00 0.51 0.03 93 1013.1
20260902064534 16 217 11.3 19.3 0.00 0.71 0.03 94 1013.1
20260902063033 16 202 11.3 17.7 0.00 0.71 0.03 94 1012.9
20260902061544 16 205 6.4 17.7 0.00 0.71 0.03 94 1013.0